Hourly Data Report for June 02, 2019

BORDEN AWOS
ONTARIO
Current Station Operator: DND

44°16'20.000" N
79°54'42.000" W
222.50 m
611B002
71534
YBN

Download Data

Hourly Data (June 2019)
Hourly Data Report for June 2, 2019
TIME
LST
Temp Definition
°C
Dew Point Definition
°C
Rel Hum Definition
%
Precip. Amount Definition
mm

Wind Dir Definition
10's deg

Wind Spd Definition
km/h
Visibility Definition
km
Stn Press Definition
kPa
Hmdx Definition


Wind Chill Definition


Weather Definition


00:00 11.8 11.8 100     0 8.0 98.00     LegendNANA
01:00 11.5 11.4 99   35 7 8.0 97.96     LegendNANA
02:00 10.7 10.7 100   36 9 11.3 97.93     Rain
03:00 10.5 10.5 100   2 7 8.0 97.91     LegendNANA
04:00
05:00 10.6 10.6 100     0 12.9 97.88     LegendNANA
06:00 10.8 8.2 84   30 6 14.5 97.88     LegendNANA
07:00 11.2 7.3 77   29 6 14.5 97.96     LegendNANA
08:00 12.8 5.9 63   32 11 14.5 97.99     LegendNANA
09:00 13.6 5.4 58   35 20 14.5 98.03     LegendNANA
10:00 14.6 5.2 53   36 19 14.5 98.09     LegendNANA
11:00 16.3 5.2 48   34 19 14.5 98.10     LegendNANA
12:00 16.7 0.2 33   35 28 14.5 98.10     LegendNANA
13:00 16.7 1.8 37   35 30 14.5 98.12     LegendNANA
14:00 17.8 -1.1 28   31 24 14.5 98.13     LegendNANA
15:00 17.5 -1.8 27   28 30 14.5 98.13     LegendNANA
16:00 16.7 -4.3 23   28 31 14.5 98.16     LegendNANA
17:00 16.0 -4.4 24   28 30 14.5 98.15     LegendNANA
18:00 14.9 -1.4 33   28 26 14.5 98.17     LegendNANA
19:00 12.9 0.4 42   29 15 14.5 98.25     LegendNANA
20:00 10.7 -2.4 40   28 30 14.5 98.30     LegendNANA
21:00 8.4 -2.6 46   28 13 14.5 98.38     LegendNANA
22:00 7.8 -1.9 50   28 15 14.5 98.42     LegendNANA
23:00 7.4 0.0 59   28 17 14.5 98.38     LegendNANA

Notes on Data Quality.

Legend

  • E = Estimated
  • M = Missing
  • NA = Not Available*
  • [empty] = Indicates an unobserved value
Date modified: